TimeEST,TemperatureF,Dew PointF,Humidity,Sea Level PressureIn,VisibilityMPH,Wind Direction,Wind SpeedMPH,Gust SpeedMPH,PrecipitationIn,Events,Conditions,WindDirDegrees,DateUTC
12:03 AM,37.4,33.8,87,30.23,10.0,ESE,6.9,-,N/A,,Clear,120,2013-01-06 05:03:00
12:24 AM,37.4,33.8,87,30.21,10.0,SE,6.9,-,N/A,Rain,Light Rain,130,2013-01-06 05:24:00
12:45 AM,39.2,33.8,81,30.22,10.0,Calm,Calm,-,N/A,Rain,Light Rain,0,2013-01-06 05:45:00
1:06 AM,37.4,33.8,87,30.21,10.0,Calm,Calm,-,N/A,,Drizzle,0,2013-01-06 06:06:00
1:27 AM,37.4,33.8,87,30.21,10.0,Calm,Calm,-,N/A,,Scattered Clouds,0,2013-01-06 06:27:00
1:48 AM,37.4,33.8,87,30.23,10.0,Calm,Calm,-,N/A,,Clear,0,2013-01-06 06:48:00
2:09 AM,35.6,35.6,100,30.20,10.0,Calm,Calm,-,N/A,Rain,Light Rain,0,2013-01-06 07:09:00
2:30 AM,35.6,35.6,100,30.21,7.0,Calm,Calm,-,N/A,,Clear,0,2013-01-06 07:30:00
2:54 AM,35.6,35.6,100,30.21,7.0,Calm,Calm,-,N/A,,Drizzle,0,2013-01-06 07:54:00
3:15 AM,35.6,35.6,100,30.18,7.0,Calm,Calm,-,N/A,Rain,Light Rain,0,2013-01-06 08:15:00
3:36 AM,35.6,35.6,100,30.17,10.0,SSE,3.5,-,N/A,,Scattered Clouds,150,2013-01-06 08:36:00
3:57 AM,37.4,33.8,87,30.15,10.0,Calm,Calm,-,N/A,,Clear,0,2013-01-06 08:57:00
4:18 AM,35.6,33.8,93,30.15,10.0,SSE,3.5,-,N/A,,Clear,150,2013-01-06 09:18:00
4:39 AM,35.6,33.8,93,30.15,10.0,Calm,Calm,-,N/A,,Scattered Clouds,0,2013-01-06 09:39:00
5:00 AM,35.6,33.8,93,30.16,10.0,Calm,Calm,-,N/A,,Mostly Cloudy,0,2013-01-06 10:00:00
5:21 AM,35.6,33.8,93,30.15,10.0,Calm,Calm,-,N/A,,Scattered Clouds,0,2013-01-06 10:21:00
5:30 AM,33.8,32.0,93,30.15,10.0,Calm,Calm,-,N/A,,Scattered Clouds,0,2013-01-06 10:30:00
5:55 AM,32.0,32.0,100,30.15,7.0,Calm,Calm,-,N/A,,Mostly Cloudy,0,2013-01-06 10:55:00
6:45 AM,32.0,32.0,100,30.15,5.0,Calm,Calm,-,N/A,,Mostly Cloudy,0,2013-01-06 11:45:00
7:45 AM,28.4,28.4,100,30.16,5.0,Calm,Calm,-,N/A,,Scattered Clouds,0,2013-01-06 12:45:00
8:45 AM,32.0,32.0,100,30.16,5.0,Calm,Calm,-,N/A,,Scattered Clouds,0,2013-01-06 13:45:00
9:45 AM,41.0,35.6,81,30.16,7.0,Calm,Calm,-,N/A,,Mostly Cloudy,0,2013-01-06 14:45:00
10:45 AM,41.0,35.6,81,30.15,7.0,Calm,Calm,-,N/A,,Scattered Clouds,0,2013-01-06 15:45:00
11:45 AM,46.4,35.6,66,30.11,7.0,SE,3.5,-,N/A,,Scattered Clouds,140,2013-01-06 16:45:00
12:45 PM,50.0,28.4,43,30.07,7.0,West,10.4,-,N/A,,Partly Cloudy,270,2013-01-06 17:45:00
1:45 PM,51.8,26.6,38,30.05,10.0,WSW,9.2,-,N/A,,Partly Cloudy,250,2013-01-06 18:45:00
2:45 PM,50.0,24.8,37,30.03,10.0,WSW,8.1,-,N/A,,Scattered Clouds,240,2013-01-06 19:45:00
3:45 PM,50.0,26.6,40,30.04,10.0,SW,9.2,-,N/A,,Scattered Clouds,220,2013-01-06 20:45:00
4:54 PM,44.6,32.0,61,30.05,10.0,Calm,Calm,-,N/A,,Mostly Cloudy,0,2013-01-06 21:54:00
5:45 PM,42.8,32.0,66,30.06,10.0,Calm,Calm,-,N/A,,Mostly Cloudy,0,2013-01-06 22:45:00
6:45 PM,41.0,32.0,70,30.08,10.0,Calm,Calm,-,N/A,,Overcast,0,2013-01-06 23:45:00
7:50 PM,46.4,30.2,53,30.09,10.0,West,6.9,-,N/A,,Overcast,270,2013-01-07 00:50:00
8:55 PM,48.2,28.4,46,30.10,10.0,WSW,5.8,-,N/A,,Overcast,250,2013-01-07 01:55:00
9:50 PM,46.4,28.4,50,30.10,10.0,West,9.2,-,N/A,,Overcast,270,2013-01-07 02:50:00
10:24 PM,46.4,28.4,50,30.12,10.0,West,8.1,-,N/A,,Mostly Cloudy,270,2013-01-07 03:24:00
10:45 PM,46.4,30.2,53,30.12,10.0,West,5.8,-,N/A,,Mostly Cloudy,260,2013-01-07 03:45:00
11:06 PM,44.6,30.2,57,30.13,10.0,West,5.8,-,N/A,,Overcast,270,2013-01-07 04:06:00
11:27 PM,44.6,30.2,57,30.14,10.0,West,5.8,-,N/A,,Overcast,260,2013-01-07 04:27:00
11:48 PM,44.6,30.2,57,30.14,10.0,WSW,5.8,-,N/A,,Overcast,250,2013-01-07 04:48:00